| time (UTC) | temp F | wind direction | speed knots | gust knots | rain 1hr in | rain 24hr in | rain mn in | humidity % | barometer mb |
| 20260510140004 | 53 | 64 | 1.7 | 8.7 | 0.00 | 0.13 | 0.13 | 88 | 1014.6 |
| 20260510135003 | 52 | 48 | 1.7 | 7.0 | 0.00 | 0.13 | 0.13 | 88 | 1014.6 |
| 20260510134004 | 52 | 339 | 1.7 | 7.0 | 0.00 | 0.13 | 0.13 | 89 | 1014.6 |
| 20260510132003 | 52 | 52 | 0.9 | 2.6 | 0.01 | 0.13 | 0.13 | 88 | 1014.8 |
| 20260510131004 | 51 | 5 | 0.9 | 7.8 | 0.02 | 0.13 | 0.13 | 88 | 1014.8 |
| 20260510130004 | 51 | 320 | 3.5 | 12.2 | 0.03 | 0.13 | 0.13 | 88 | 1014.5 |
| 20260510125004 | 51 | 324 | 7.8 | 13.0 | 0.05 | 0.13 | 0.13 | 88 | 1014.5 |
| 20260510124003 | 52 | 312 | 4.3 | 8.7 | 0.07 | 0.13 | 0.13 | 89 | 1014.9 |
| 20260510123004 | 52 | 312 | 2.6 | 5.2 | 0.08 | 0.12 | 0.12 | 89 | 1015.1 |
| 20260510121004 | 52 | 310 | 3.5 | 7.8 | 0.08 | 0.11 | 0.11 | 88 | 1015.3 |
| 20260510120004 | 51 | 293 | 1.7 | 5.2 | 0.07 | 0.09 | 0.09 | 88 | 1015.3 |
| 20260510114003 | 51 | 300 | 1.7 | 5.2 | 0.04 | 0.06 | 0.06 | 86 | 1015.4 |
| 20260510112004 | 52 | 306 | 3.5 | 7.0 | 0.03 | 0.04 | 0.04 | 85 | 1015.4 |
| 20260510111004 | 52 | 316 | 1.7 | 7.0 | 0.02 | 0.03 | 0.03 | 85 | 1015.7 |
| 20260510110004 | 52 | 348 | 1.7 | 4.3 | 0.02 | 0.02 | 0.02 | 85 | 1015.8 |
| 20260510105003 | 52 | 17 | 1.7 | 5.2 | 0.02 | 0.02 | 0.02 | 84 | 1016.0 |
| 20260510104003 | 52 | 31 | 1.7 | 2.6 | 0.02 | 0.02 | 0.02 | 84 | 1016.0 |
| 20260510103004 | 52 | 7 | 1.7 | 11.3 | 0.01 | 0.01 | 0.01 | 83 | 1015.6 |
| 20260510102003 | 52 | 303 | 4.3 | 10.4 | 0.01 | 0.01 | 0.01 | 83 | 1015.5 |
| 20260510100004 | 52 | 288 | 4.3 | 10.4 | 0.01 | 0.01 | 0.01 | 82 | 1015.6 |
| 20260510095004 | 53 | 286 | 2.6 | 8.7 | 0.00 | 0.00 | 0.00 | 81 | 1015.6 |
| 20260510094003 | 53 | 304 | 2.6 | 8.7 | 0.00 | 0.00 | 0.00 | 79 | 1015.8 |
| 20260510093004 | 53 | 317 | 3.5 | 7.0 | 0.00 | 0.00 | 0.00 | 77 | 1015.7 |
| 20260510092003 | 53 | 295 | 2.6 | 8.7 | 0.00 | 0.00 | 0.00 | 76 | 1015.7 |
| 20260510091004 | 53 | 306 | 2.6 | 10.4 | 0.00 | 0.00 | 0.00 | 77 | 1015.9 |
| 20260510090004 | 53 | 294 | 1.7 | 7.8 | 0.00 | 0.00 | 0.00 | 78 | 1015.8 |
| 20260510085003 | 53 | 314 | 1.7 | 7.0 | 0.00 | 0.00 | 0.00 | 77 | 1015.8 |
| 20260510083003 | 53 | 304 | 1.7 | 7.8 | 0.00 | 0.00 | 0.00 | 77 | 1015.9 |
| 20260510082004 | 53 | 9 | 0.9 | 7.8 | 0.00 | 0.00 | 0.00 | 77 | 1015.9 |
| 20260510081005 | 53 | 301 | 1.7 | 7.0 | 0.00 | 0.00 | 0.00 | 78 | 1015.9 |
| 20260510074003 | 53 | 308 | 2.6 | 10.4 | 0.00 | 0.00 | 0.00 | 78 | 1015.8 |
| 20260510072003 | 52 | 309 | 3.5 | 8.7 | 0.00 | 0.00 | 0.00 | 79 | 1015.9 |
| 20260510070003 | 52 | 320 | 1.7 | 7.8 | 0.00 | 0.00 | 0.00 | 81 | 1016.0 |
| 20260510065003 | 51 | 323 | 2.6 | 8.7 | 0.00 | 0.00 | 0.00 | 81 | 1015.9 |
| 20260510063003 | 51 | 298 | 1.7 | 7.8 | 0.00 | 0.00 | 0.00 | 82 | 1016.1 |
| 20260510061004 | 51 | 303 | 2.6 | 8.7 | 0.00 | 0.00 | 0.00 | 82 | 1016.2 |
| 20260510060004 | 51 | 284 | 1.7 | 5.2 | 0.00 | 0.00 | 0.00 | 82 | 1016.2 |
| 20260510055004 | 51 | 295 | 1.7 | 7.8 | 0.00 | 0.00 | 0.00 | 82 | 1016.2 |
| 20260510053005 | 50 | 308 | 2.6 | 5.2 | 0.00 | 0.00 | 0.00 | 82 | 1016.1 |
| 20260510051003 | 50 | 308 | 1.7 | 5.2 | 0.00 | 0.00 | 0.00 | 82 | 1016.0 |
| 20260510050004 | 50 | 271 | 1.7 | 6.1 | 0.00 | 0.00 | 0.00 | 82 | 1015.9 |
| 20260510045004 | 50 | 278 | 0.9 | 7.8 | 0.00 | 0.00 | 0.00 | 81 | 1016.0 |
| 20260510044004 | 51 | 321 | 4.3 | 8.7 | 0.00 | 0.00 | 0.00 | 81 | 1015.9 |
| 20260510043003 | 51 | 311 | 2.6 | 7.8 | 0.00 | 0.00 | 0.00 | 81 | 1015.9 |
| 20260510042004 | 51 | 288 | 2.6 | 7.8 | 0.00 | 0.00 | 0.00 | 80 | 1015.9 |
| 20260510041003 | 51 | 330 | 2.6 | 7.8 | 0.00 | 0.00 | 0.00 | 79 | 1015.9 |
| 20260510040004 | 51 | 299 | 4.3 | 8.7 | 0.00 | 0.00 | 0.00 | 78 | 1016.0 |
| 20260510035003 | 51 | 313 | 3.5 | 7.0 | 0.00 | 0.00 | 0.00 | 77 | 1016.0 |
| 20260510034004 | 52 | 291 | 3.5 | 8.7 | 0.00 | 0.00 | 0.00 | 75 | 1016.1 |
| 20260510033004 | 52 | 314 | 2.6 | 8.7 | 0.00 | 0.00 | 0.00 | 74 | 1016.2 |
| 20260510032004 | 52 | 305 | 1.7 | 6.1 | 0.00 | 0.00 | 0.00 | 74 | 1016.1 |
| 20260510030003 | 52 | 309 | 2.6 | 6.1 | 0.00 | 0.00 | 0.00 | 73 | 1016.2 |
| 20260510024003 | 53 | 300 | 0.9 | 5.2 | 0.00 | 0.00 | 0.00 | 72 | 1016.2 |
| 20260510022003 | 53 | 96 | 0.9 | 2.6 | 0.00 | 0.00 | 0.00 | 71 | 1016.1 |
| 20260510021004 | 53 | 338 | 1.7 | 4.3 | 0.00 | 0.00 | 0.00 | 71 | 1016.1 |
| 20260510020004 | 53 | 291 | 0.9 | 2.6 | 0.00 | 0.00 | 0.00 | 70 | 1016.0 |
| 20260510014003 | 53 | 280 | 0.9 | 6.1 | 0.00 | 0.00 | 0.00 | 68 | 1016.2 |
| 20260510013004 | 54 | 312 | 0.9 | 2.6 | 0.00 | 0.00 | 0.00 | 66 | 1016.2 |
| 20260510012004 | 54 | 291 | 0.9 | 2.6 | 0.00 | 0.00 | 0.00 | 66 | 1016.2 |
| 20260510010004 | 54 | 67 | 0.9 | 2.6 | 0.00 | 0.00 | 0.00 | 64 | 1016.3 |
| 20260510004004 | 54 | 16 | 0.9 | 8.7 | 0.00 | 0.00 | 0.00 | 63 | 1016.1 |
| 20260510003004 | 54 | 59 | 0.9 | 2.6 | 0.00 | 0.00 | 0.00 | 61 | 1016.2 |
| 20260510002003 | 55 | 37 | 0.0 | 4.3 | 0.00 | 0.00 | 0.00 | 60 | 1016.2 |
| 20260510001003 | 55 | 65 | 0.9 | 2.6 | 0.00 | 0.00 | 0.00 | 60 | 1016.4 |
| 20260510000004 | 55 | 344 | 0.9 | 2.6 | 0.00 | 0.00 | 0.00 | 60 | 1016.2 |
| 20260509235003 | 55 | 217 | 0.9 | 4.3 | 0.00 | 0.00 | 0.00 | 59 | 1016.0 |
| 20260509234004 | 56 | 28 | 0.9 | 7.0 | 0.00 | 0.00 | 0.00 | 58 | 1016.0 |
| 20260509233004 | 56 | 180 | 0.9 | 2.6 | 0.00 | 0.00 | 0.00 | 57 | 1016.1 |
| 20260509232004 | 56 | 64 | 1.7 | 7.0 | 0.00 | 0.00 | 0.00 | 57 | 1016.1 |
| 20260509231004 | 56 | 75 | 1.7 | 7.8 | 0.00 | 0.00 | 0.00 | 57 | 1016.1 |
| 20260509230003 | 56 | 73 | 1.7 | 6.1 | 0.00 | 0.00 | 0.00 | 56 | 1016.1 |
| 20260509225003 | 56 | 49 | 1.7 | 2.6 | 0.00 | 0.00 | 0.00 | 55 | 1016.1 |
| 20260509224004 | 56 | 75 | 1.7 | 7.0 | 0.00 | 0.00 | 0.00 | 54 | 1015.9 |
| 20260509223004 | 56 | 29 | 1.7 | 5.2 | 0.00 | 0.00 | 0.00 | 53 | 1015.8 |
| 20260509222004 | 57 | 51 | 1.7 | 6.1 | 0.00 | 0.00 | 0.00 | 52 | 1015.9 |
| 20260509221004 | 57 | 89 | 1.7 | 7.0 | 0.00 | 0.00 | 0.00 | 51 | 1015.9 |
| 20260509215004 | 57 | 41 | 1.7 | 4.3 | 0.00 | 0.00 | 0.00 | 50 | 1015.7 |
| 20260509213003 | 57 | 349 | 0.9 | 6.1 | 0.00 | 0.00 | 0.00 | 51 | 1015.8 |
| 20260509212004 | 58 | 47 | 1.7 | 2.6 | 0.00 | 0.00 | 0.00 | 49 | 1015.9 |
| 20260509211004 | 58 | 351 | 1.7 | 7.0 | 0.00 | 0.00 | 0.00 | 49 | 1015.9 |
| 20260509210004 | 58 | 69 | 1.7 | 6.1 | 0.00 | 0.00 | 0.00 | 50 | 1015.7 |
| 20260509205003 | 58 | 71 | 1.7 | 2.6 | 0.00 | 0.00 | 0.00 | 51 | 1015.7 |
| 20260509202004 | 59 | 269 | 1.7 | 7.0 | 0.00 | 0.00 | 0.00 | 50 | 1015.3 |
| 20260509201004 | 60 | 344 | 1.7 | 7.0 | 0.00 | 0.00 | 0.00 | 51 | 1015.2 |
| 20260509200004 | 60 | 306 | 1.7 | 2.6 | 0.00 | 0.00 | 0.00 | 52 | 1015.1 |
| 20260509195003 | 61 | 355 | 0.9 | 4.3 | 0.00 | 0.00 | 0.00 | 53 | 1015.0 |
| 20260509194004 | 61 | 259 | 0.9 | 2.6 | 0.00 | 0.00 | 0.00 | 55 | 1015.0 |
| 20260509193004 | 62 | 303 | 0.9 | 2.6 | 0.00 | 0.00 | 0.00 | 55 | 1015.1 |
| 20260509192004 | 63 | 305 | 0.9 | 2.6 | 0.00 | 0.00 | 0.00 | 55 | 1015.0 |
| 20260509191004 | 63 | 67 | 0.9 | 2.6 | 0.00 | 0.00 | 0.00 | 56 | 1015.1 |
| 20260509190004 | 64 | 84 | 1.7 | 2.6 | 0.00 | 0.00 | 0.00 | 55 | 1015.0 |
| 20260509185003 | 64 | 65 | 1.7 | 2.6 | 0.00 | 0.00 | 0.00 | 54 | 1014.9 |
| 20260509184004 | 65 | 68 | 0.9 | 1.7 | 0.00 | 0.00 | 0.00 | 53 | 1014.6 |
| 20260509183004 | 66 | 24 | 1.7 | 2.6 | 0.00 | 0.00 | 0.00 | 53 | 1014.7 |
| 20260509182004 | 66 | 310 | 0.9 | 1.7 | 0.00 | 0.00 | 0.00 | 53 | 1014.8 |
| 20260509181003 | 66 | 355 | 0.9 | 2.6 | 0.00 | 0.00 | 0.00 | 52 | 1014.8 |
| 20260509180004 | 67 | 55 | 0.9 | 2.6 | 0.00 | 0.00 | 0.00 | 52 | 1014.6 |
| 20260509175003 | 67 | 315 | 0.9 | 2.6 | 0.00 | 0.00 | 0.00 | 51 | 1014.5 |
| 20260509172004 | 69 | 59 | 2.6 | 4.3 | 0.00 | 0.00 | 0.00 | 50 | 1014.4 |
| 20260509171003 | 69 | 278 | 0.9 | 4.3 | 0.00 | 0.00 | 0.00 | 50 | 1014.3 |
| 20260509170004 | 69 | 67 | 2.6 | 4.3 | 0.00 | 0.00 | 0.00 | 50 | 1014.3 |
| 20260509165004 | 70 | 74 | 2.6 | 5.2 | 0.00 | 0.00 | 0.00 | 47 | 1014.4 |
| 20260509164004 | 71 | 311 | 0.9 | 5.2 | 0.00 | 0.00 | 0.00 | 49 | 1014.4 |
| 20260509162004 | 69 | 346 | 0.9 | 2.6 | 0.00 | 0.00 | 0.00 | 52 | 1014.5 |
| 20260509161004 | 69 | 80 | 1.7 | 4.3 | 0.00 | 0.00 | 0.00 | 52 | 1014.5 |
| 20260509160004 | 71 | 79 | 1.7 | 4.3 | 0.00 | 0.00 | 0.00 | 50 | 1014.3 |
| 20260509154003 | 71 | 64 | 0.9 | 6.1 | 0.00 | 0.00 | 0.00 | 50 | 1014.5 |
| 20260509153004 | 71 | 106 | 1.7 | 6.1 | 0.00 | 0.00 | 0.00 | 50 | 1014.6 |
| 20260509152004 | 71 | 159 | 1.7 | 2.6 | 0.00 | 0.00 | 0.00 | 52 | 1014.7 |
| 20260509151004 | 71 | 103 | 1.7 | 7.8 | 0.00 | 0.00 | 0.00 | 51 | 1014.9 |
| 20260509145003 | 70 | 166 | 2.6 | 6.1 | 0.00 | 0.00 | 0.00 | 53 | 1015.2 |
| 20260509144004 | 71 | 150 | 2.6 | 8.7 | 0.00 | 0.00 | 0.00 | 53 | 1015.2 |
| 20260509143004 | 71 | 127 | 1.7 | 7.8 | 0.00 | 0.00 | 0.00 | 52 | 1015.2 |
| 20260509142003 | 70 | 160 | 1.7 | 7.0 | 0.00 | 0.00 | 0.00 | 52 | 1015.1 |
| 20260509141003 | 71 | 64 | 1.7 | 7.0 | 0.00 | 0.00 | 0.00 | 46 | 1015.1 |